Location: Dos Palmas
(32.4468°N, 116.8732°W)
Time: 03:56:21
(UTC+00:00)

Cosmos 1727 Rocket - Pass Details

Date: 20 June 2021
Orbit: 960 x 997 km, 82.9° (Epoch: 29 July)

Event Time Altitude Azimuth Distance (km) Brightness Sun altitude
Exits shadow 04:39:51 - 195° (SSW) 3,514 6.6 -18.2°
Reaches altitude 10° 04:41:56 10° 198° (SSW) 2,748 6.1 -18.5°
Maximum altitude 04:48:09 61° 278° (W) 1,117 4.5 -19.4°
Drops below altitude 10° 04:54:21 10° 358° (N) 2,740 7.0 -20.3°
Sets 04:56:55 0° 2° (N) 3,686 7.7 -20.6°
